www.pogodaiklimat.ru

Погода и климат >> Архив погоды >> Ирак >> Али Аль-Гарби


ПОГОДА в Али Аль-Гарби

  • Прогноз погоды в Али Аль-Гарби
  • Монитор погоды в Али Аль-Гарби

АРХИВ ПОГОДЫ в Али Аль-Гарби

Время (UTC), дата Ветер
(напр.,м/с)
 
Видим.   Явления Облачность Т
(С)
Тd
(С)
f
(%)
Тe
(С)
Тes
(С)
Комфортность P
(гПа)
Po
(гПа)
Тmin
(С)
Tmax
(С)
R
(мм)
R24
(мм)
S
(см)
00 18.08 СЗ 3 10 км ясно +28.5 +12.2 36 +30 +30 жарко 999.8 998.2
03 18.08 штиль 0 10 км ясно +26.0 +15.3 52 +29 +30 душно 1001.4 999.8
06 18.08 штиль 0 10 км ясно +32.8 +14.7 34 +35 +50 душно 1001.4 999.8 +25.8
09 18.08 СЗ 5 10 км ясно +40.6 +14.3 21 +41 +51 опасность
перегрева
1002.6 1001.1
15 18.08 штиль 0 10 км ясно +41.4 +13.7 20 +42 +42 опасность
перегрева
1002.6 1001.1
18 18.08 СЗ 2 10 км ясно +35.5 +13.5 27 +36 +36 очень
жарко
1003.3 1001.7 +43.5
21 18.08 З 2 10 км ясно +32.0 +15.0 36 +34 +34 душно 1003.3 1001.7
00 19.08 штиль 0 10 км ясно +29.5 +14.8 41 +32 +32 душно 1003.3 1001.7
03 19.08 штиль 0 10 км ясно +21.6 +12.6 57 +24 +25 комфорт 1003.3 1001.7
06 19.08 В 2 10 км ясно +35.0 +16.1 32 +37 +48 очень
душно
1005.8 1004.2 +21.2
09 19.08 СЗ 3 10 км ясно +43.0 +15.0 20 +44 +60 опасность
перегрева
1005.8 1004.3
12 19.08 СЗ 4 10 км ясно +45.0 +12.1 15 +44 +51 опасность
перегрева
1005.1 1003.6
15 19.08 СЗ 2 10 км ясно +42.8 +14.4 19 +43 +43 опасность
перегрева
1004.2 1002.7
18 19.08 СЗ 2 10 км ясно +36.8 +12.4 23 +37 +37 очень
жарко
1005.7 1004.1 +45.5
21 19.08 СЗ 2 10 км ясно +32.7 +12.4 29 +33 +33 жарко 1005.7 1004.1
00 20.08 штиль 0 10 км ясно +29.2 +13.5 38 +31 +31 жарко 1004.3 1002.7
03 20.08 штиль 0 10 км ясно +26.8 +13.6 44 +29 +29 жарко 1004.3 1002.7
06 20.08 штиль 0 10 км ясно +35.5 +14.7 29 +37 +52 опасность
солнечного
удара
1006.5 1004.9 +26.5
09 20.08 штиль 0 10 км ясно +43.8 +14.4 18 +44 +70 опасность
перегрева
1006.5 1005.0
12 20.08 З 3 10 км ясно +47.0 +10.6 12 +46 +54 опасность
перегрева
1004.3 1002.8
15 20.08 СЗ 3 10 км ясно +44.0 +11.5 15 +43 +43 опасность
перегрева
1004.3 1002.8
18 20.08 СЗ 4 10 км ясно +36.0 +11.8 23 +36 +36 очень
жарко
1004.9 1003.3 +47.5
21 20.08 З 4 10 км ясно +32.2 +8.7 23 +31 +31 жарко 1004.9 1003.3
00 21.08 З 2 10 км ясно +30.0 +10.9 31 +30 +30 жарко 1004.9 1003.3
03 21.08 штиль 0 10 км ясно +26.2 +12.8 43 +28 +28 жарко 1004.9 1003.3
06 21.08 штиль 0 10 км ясно +36.0 +11.8 23 +36 +50 очень
жарко
1004.9 1003.3 +26.0
09 21.08 СЗ 6 10 км ясно +45.5 +8.8 11 +43 +51 опасность
перегрева
1004.9 1003.4
15 21.08 СЗ 5 10 км ясно +43.4 +7.7 12 +41 +41 опасность
перегрева
1004.2 1002.7
18 21.08 СЗ 5 10 км ясно +36.6 +11.3 22 +36 +36 очень
жарко
1004.2 1002.7 +47.8
21 21.08 СЗ 4 10 км ясно +33.5 +10.2 24 +33 +33 жарко 1004.2 1002.6
03 22.08 СЗ 5 10 км 1/0
[Ac trans]
+30.0 +10.9 31 +30 +31 жарко 1004.2 1002.6
06 22.08 СЗ 5 10 км ясно +36.0 +11.8 23 +36 +41 очень
жарко
1003.6 1002.0 +29.5
09 22.08 СЗ 8 10 км ясно +44.5 +9.5 13 +43 +46 опасность
перегрева
1003.0 1001.5
15 22.08 СЗ 8 10 км ясно +42.2 +5.2 11 +39 +39 очень
жарко
1001.8 1000.3
21 22.08 СЗ 6 10 км ясно +33.7 +6.4 18 +32 +32 жарко 1002.6 1001.0
00 23.08 СЗ 6 10 км ясно +32.2 +4.9 18 +30 +30 жарко 1001.7 1000.1
03 23.08 СЗ 2 10 км ясно +29.2 +8.5 27 +29 +29 жарко 1001.7 1000.1
06 23.08 штиль 0 10 км ясно +36.0 +10.5 21 +35 +50 очень
жарко
1004.1 1002.5 +29.0
09 23.08 штиль 0 10 км ясно +43.0 +15.0 20 +44 +70 опасность
перегрева
1004.1 1002.6
12 23.08 З 2 10 км ясно +47.0 +11.8 13 +46 +56 опасность
перегрева
1003.6 1002.1
15 23.08 СЗ 4 10 км ясно +43.5 +5.4 10 +41 +41 опасность
перегрева
1001.7 1000.2
18 23.08 СЗ 5 10 км ясно +37.0 +6.4 15 +34 +34 очень
жарко
1003.2 1001.7 +47.5
21 23.08 СЗ 5 10 км ясно +32.0 +8.9 24 +31 +31 жарко 1003.2 1001.6
00 24.08 штиль 0 10 км ясно +30.4 +14.1 37 +32 +32 жарко 1004.3 1002.7
03 24.08 ЮВ 3 10 км ясно +30.8 +17.3 44 +35 +35 очень
душно
1006.8 1005.2
06 24.08 В 4 10 км ясно +36.5 +21.1 41 +44 +51 опасность
перегрева
1006.8 1005.2 +30.2
09 24.08 Ю 2 10 км ясно +43.6 +16.0 20 +45 +64 опасность
перегрева
1006.8 1005.3
12 24.08 штиль 0 10 км ясно +46.0 +14.0 16 +46 +60 опасность
перегрева
1005.7 1004.2
15 24.08 штиль 0 10 км ясно +43.6 +14.5 18 +44 +44 опасность
перегрева
1004.3 1002.8
18 24.08 штиль 0 10 км ясно +37.6 +10.3 19 +36 +36 очень
жарко
1004.3 1002.8 +46.5
21 24.08 штиль 0 10 км ясно +33.2 +8.2 21 +32 +32 жарко 1004.3 1002.7

 

Местоположение метеостанции Али Аль-Гарби (Ирак): широта 32.47 долгота 46.72 высота над уровнем моря 14 м.

В архиве по умолчанию представлена погода в Али Аль-Гарби за последнюю неделю. Архивные данные за месяц целиком и за предыдущие месяцы, начиная с января 2011 года, Вы можете получить, выбрав интересующий диапазон дат из раскрывающегося списка и нажав кнопку "Ввод!".


*Определитесь, кто Вы:
робот инопланетянин человек

Внимание! Время в таблицах - всемирное. Для получения местного времени необходимо прибавить поправку, которая равна 3 ч.

Смотрите также архив погоды в соседних городах и на ближайших метеорологических станциях:

Погода в Кут-аль-Хай (Ирак) (71 км)
Погода в Амаре (Ирак) (81 км)
Погода в Убайда Бин Аль Джарра (Ирак) (91 км)
Погода в Бадре (Ирак) (100 км)
Погода в Рифаи (Ирак) (102 км)
Погода в Иламе (Иран) (132 км)
Погода в Сафиабаде (Иран) (161 км)
Погода в Насирии (Ирак) (161 км)
Погода в Эль-Азизии (Ирак) (162 км)
Погода в Дивании (Ирак) (173 км)

Пояснения к столбцам:

Ветер - указаны скорость ветра в м/с - средняя за 10 мин, порывы в срок и между сроками (в фигурных скобках) и направление, откуда дует ветер: С - северный, СВ - северо-восточный, В - восточный, ЮВ - юго-восточный, Ю - южный, ЮЗ - юго-западный, З - западный, СЗ - северо-западный.
Видимость - горизонтальная дальность видимости в метрах или километрах. При видимости от 1 до 10 км при отсутствии осадков обычно наблюдается дымка, при ухудшении видимости до 1 км и менее - туман. В сухую погоду видимость может ухудшаться дымом, пылью или мглою.
Явления - указаны атмосферные явления, наблюдавшиеся в срок или в последний час перед сроком; фигурными скобками обозначены явления, наблюдавшиеся между сроками (за 1-3 часа до срока); квадратными скобками обозначены град или гололедные отложения с указанием их диаметра в мм.
Облачность - указаны через наклонную черту общая и нижняя облачность в баллах и высота нижней границы облаков в метрах; квадратными скобками обозначены формы облаков: Ci - перистые, Cs - перисто-слоистые, Cc - перисто-кучевые, Ac - высококучевые, As - высокослоистые, Sc - слоисто-кучевые, Ns - слоисто-дождевые, Cu - кучевые, Cb - кучево-дождевые. Подробнее классификацию облаков см. в Атласе облаков (PDF).
T - Температура воздуха - температура, измеренная на высоте 2 м над землей.
Td - Температура точки росы - температура, при понижении до которой содержащийся в воздухе водяной пар достигнет насыщения.
f - Относительная влажность воздуха - влажноcть воздуха, измеренная на высоте 2 м над землей.
Te - Эффективная температура - температура, которую ощущает одетый по сезону человек в тени. Характеристика душности погоды. При расчете учитывается влияние влажности воздуха и скорости ветра на теплоощущения человека.
Tes - Эффективная температура на солнце - температура, которую ощущает человек, с поправкой на солнечный нагрев. Характеристика знойности погоды. Зависит от высоты солнца над горизонтом, облачности и скорости ветра. Ночью, в пасмурную погоду, а также при ветре 12 м/с и более поправка равна нулю.
P - Атмосферное давление - приведенное к уровню моря атмосферное давление.
Po - Атмосферное давление - измеренное на уровне метеостанции атмосферное давление.
Tmin - Минимальная температура - минимум температуры воздуха на высоте 2 м над землей.
Tmax - Максимальная температура - максимум температуры воздуха на высоте 2 м над землей.
R - Количество осадков - Количество выпавших осадков за период времени, мм. При наведении курсора мыши на число - период времени, за который выпало указанное количество осадков.
R24 - Количество осадков - Количество выпавших осадков за 24 часа, мм.
S - Снежный покров - Высота снежного покрова, см. При наведении курсора мыши на число - состояние снежного покрова и степень покрытия местности в баллах.